FW2982 Weather Reports


Display with metric or nautical units.
time (UTC)temp
F
wind
direction
speed
MPH
gust
MPH
rain 1hr
in
rain 24hr
in
rain mn
in
humidity
%
barometer
mb
20260906232800 73 62 0.0 0.0 0.00 0.02 0.02 74 1013.3
20260906232300 73 62 0.0 0.0 0.00 0.02 0.02 73 1013.2
20260906231800 74 62 0.0 0.0 0.00 0.02 0.02 72 1013.1
20260906231259 74 62 0.0 0.0 0.00 0.02 0.02 71 1013.1
20260906230758 74 62 0.0 0.0 0.00 0.02 0.02 70 1013.1
20260906230539 75 62 0.0 1.0 0.00 0.02 0.02 69 1013.1
20260906225758 75 62 0.0 1.0 0.01 0.02 0.02 70 1013.1
20260906225300 76 62 0.0 1.0 0.01 0.02 0.02 67 1013.1
20260906224755 76 62 0.0 2.0 0.01 0.02 0.02 67 1013.0
20260906224247 76 62 0.0 2.0 0.01 0.02 0.02 67 1012.9
20260906223747 77 62 0.0 2.0 0.01 0.02 0.02 65 1012.8
20260906223248 77 62 0.0 2.0 0.01 0.02 0.02 63 1012.8
20260906222747 78 62 0.0 2.0 0.01 0.02 0.02 61 1012.8
20260906222241 78 62 0.0 3.0 0.01 0.02 0.02 61 1012.8
20260906221740 78 55 0.0 3.0 0.01 0.02 0.02 59 1012.8
20260906221232 78 52 1.0 4.0 0.01 0.02 0.02 59 1012.8
20260906220733 78 51 1.0 4.0 0.01 0.02 0.02 59 1012.7
20260906220231 79 71 1.0 4.0 0.01 0.02 0.02 59 1012.7
20260906215732 79 39 0.0 0.0 0.00 0.01 0.01 61 1012.7
20260906215204 79 39 0.0 0.0 0.00 0.01 0.01 61 1012.7
20260906214704 79 39 0.0 1.0 0.00 0.01 0.01 61 1012.6
20260906214203 79 39 0.0 2.0 0.00 0.01 0.01 61 1012.6
20260906213703 79 39 0.0 2.0 0.00 0.01 0.01 61 1012.6
20260906213444 80 39 0.0 2.0 0.00 0.01 0.01 59 1012.6
20260906212702 80 38 1.0 4.0 0.00 0.01 0.01 59 1012.6
20260906212202 80 37 2.0 4.0 0.00 0.01 0.01 59 1012.6
20260906211705 80 83 0.0 3.0 0.00 0.01 0.01 57 1012.6
20260906211203 80 80 2.0 3.0 0.00 0.01 0.01 58 1012.7
20260906210702 80 94 1.0 4.0 0.00 0.01 0.01 58 1012.7
20260906210203 81 102 1.0 4.0 0.00 0.01 0.01 56 1012.7
20260906205703 81 92 1.0 3.0 0.00 0.01 0.01 56 1012.7
20260906205203 81 305 1.0 3.0 0.00 0.01 0.01 56 1012.6
20260906204703 81 109 1.0 3.0 0.00 0.01 0.01 57 1012.5
20260906204204 82 58 2.0 3.0 0.00 0.01 0.01 56 1012.4
20260906203704 82 61 1.0 3.0 0.00 0.01 0.01 54 1012.4
20260906203446 82 58 2.0 3.0 0.00 0.01 0.01 54 1012.4
20260906202703 82 47 0.0 4.0 0.00 0.01 0.01 54 1012.4
20260906202203 82 309 2.0 4.0 0.00 0.01 0.01 55 1012.3
20260906201704 82 54 1.0 3.0 0.00 0.01 0.01 56 1012.3
20260906201203 81 80 0.0 3.0 0.00 0.01 0.01 54 1012.3
20260906200650 81 73 1.0 2.0 0.00 0.01 0.01 58 1012.1
20260906200148 80 312 0.0 2.0 0.00 0.01 0.01 61 1012.3
20260906195713 80 16 0.0 4.0 0.00 0.01 0.01 60 1012.5
20260906195704 79 30 0.0 2.0 0.00 0.01 0.01 62 1012.4
20260906194925 82 16 2.0 5.0 0.00 0.01 0.01 58 1012.5
20260906194145 83 51 2.0 5.0 0.00 0.01 0.01 57 1012.3
20260906193710 82 72 1.0 5.0 0.00 0.01 0.01 55 1012.4
20260906193702 82 83 1.0 5.0 0.00 0.01 0.01 56 1012.3
20260906192645 83 94 3.0 4.0 0.00 0.01 0.01 54 1012.5
20260906192144 83 48 2.0 5.0 0.00 0.01 0.01 54 1012.5
20260906191644 83 25 2.0 5.0 0.00 0.01 0.01 56 1012.5
20260906191426 84 23 2.0 4.0 0.00 0.01 0.01 55 1012.6
20260906190644 83 292 1.0 6.0 0.00 0.01 0.01 55 1012.5
20260906190145 83 347 1.0 6.0 0.00 0.01 0.01 58 1012.6
20260906185643 83 130 2.0 4.0 0.00 0.01 0.01 54 1012.6
20260906185145 84 71 1.0 4.0 0.00 0.01 0.01 54 1012.7
20260906184922 84 86 1.0 7.0 0.00 0.01 0.01 54 1012.7
20260906184423 83 48 3.0 7.0 0.00 0.01 0.01 55 1012.8
20260906183644 83 185 1.0 5.0 0.00 0.01 0.01 56 1012.8
20260906183143 83 193 1.0 5.0 0.00 0.01 0.01 57 1012.9
20260906182644 83 240 2.0 5.0 0.00 0.01 0.01 55 1012.9
20260906182142 83 90 1.0 5.0 0.00 0.01 0.01 53 1013.0
20260906181644 83 45 2.0 6.0 0.00 0.01 0.01 56 1013.0
20260906181142 83 269 2.0 6.0 0.00 0.01 0.01 58 1013.0
20260906180642 83 56 2.0 5.0 0.00 0.01 0.01 58 1012.9
20260906180144 83 69 0.0 7.0 0.00 0.01 0.01 59 1012.9
20260906175642 83 66 1.0 7.0 0.00 0.01 0.01 58 1013.0
20260906175142 83 59 2.0 3.0 0.00 0.01 0.01 58 1013.0
20260906174642 83 83 0.0 3.0 0.00 0.01 0.01 62 1013.1
20260906174419 82 80 1.0 6.0 0.00 0.01 0.01 58 1013.2
20260906173920 84 47 3.0 6.0 0.00 0.01 0.01 57 1013.2
20260906173142 83 183 1.0 4.0 0.00 0.01 0.01 59 1013.2
20260906172642 83 114 2.0 5.0 0.00 0.02 0.01 55 1013.2
20260906172143 83 54 3.0 5.0 0.00 0.02 0.01 58 1013.4
20260906171641 84 72 3.0 4.0 0.00 0.02 0.01 56 1013.2
20260906171420 84 63 2.0 4.0 0.00 0.02 0.01 58 1013.3
20260906170642 84 63 2.0 4.0 0.00 0.02 0.01 58 1013.4
20260906170420 82 31 2.0 4.0 0.00 0.02 0.01 61 1013.4
20260906165641 84 48 2.0 6.0 0.00 0.02 0.01 56 1013.3
20260906165141 83 48 2.0 6.0 0.00 0.02 0.01 62 1013.4
20260906164918 83 39 1.0 5.0 0.00 0.02 0.01 60 1013.4
20260906164140 83 39 2.0 5.0 0.00 0.02 0.01 59 1013.3
20260906163640 83 0 1.0 5.0 0.00 0.02 0.01 59 1013.4
20260906163142 82 100 3.0 5.0 0.00 0.02 0.01 59 1013.4
20260906162922 83 52 3.0 5.0 0.00 0.02 0.01 58 1013.4
20260906162418 83 306 1.0 5.0 0.00 0.02 0.01 60 1013.5
20260906161640 82 51 2.0 4.0 0.00 0.02 0.01 59 1013.4
20260906161140 83 69 2.0 4.0 0.00 0.02 0.01 59 1013.5
20260906160640 83 56 1.0 6.0 0.00 0.02 0.01 59 1013.6
20260906160139 82 86 3.0 6.0 0.00 0.02 0.01 62 1013.6
20260906155639 82 54 1.0 6.0 0.00 0.02 0.01 59 1013.4
20260906155140 82 0 1.0 5.0 0.00 0.02 0.01 62 1013.6
20260906154640 82 58 1.0 5.0 0.00 0.02 0.01 61 1013.6
20260906154417 82 42 2.0 5.0 0.00 0.02 0.01 61 1013.6
20260906153639 82 82 1.0 9.0 0.00 0.02 0.01 62 1013.6
20260906153139 82 47 3.0 9.0 0.00 0.02 0.01 62 1013.6
20260906152638 81 69 3.0 5.0 0.00 0.02 0.01 61 1013.7
20260906152139 82 75 2.0 4.0 0.00 0.02 0.01 62 1013.7
20260906151639 82 45 1.0 4.0 0.00 0.02 0.01 65 1013.8
20260906151138 81 124 1.0 5.0 0.00 0.02 0.01 64 1013.6
20260906150640 81 290 2.0 5.0 0.00 0.02 0.01 63 1013.6
20260906150138 82 0 1.0 4.0 0.00 0.02 0.01 64 1013.6
20260906145638 81 47 2.0 6.0 0.00 0.02 0.01 64 1013.6
20260906145140 80 58 1.0 6.0 0.00 0.02 0.01 67 1013.5
20260906144638 81 71 1.0 4.0 0.00 0.02 0.01 64 1013.5
20260906144138 81 217 1.0 4.0 0.00 0.02 0.01 66 1013.4
20260906143638 78 72 1.0 4.0 0.00 0.02 0.01 69 1013.5
20260906143138 79 65 2.0 5.0 0.00 0.02 0.01 68 1013.5
20260906142637 79 48 3.0 5.0 0.00 0.02 0.01 68 1013.4
20260906142140 79 49 1.0 4.0 0.00 0.02 0.01 68 1013.4
20260906141637 78 41 2.0 4.0 0.00 0.02 0.01 71 1013.4
20260906141137 77 71 1.0 3.0 0.00 0.02 0.01 72 1013.5
20260906140917 76 66 2.0 6.0 0.00 0.02 0.01 71 1013.5
20260906140137 76 75 2.0 6.0 0.00 0.02 0.01 71 1013.4
20260906135638 76 51 2.0 4.0 0.00 0.02 0.01 73 1013.5
20260906135140 76 55 1.0 4.0 0.00 0.02 0.01 73 1013.4
20260906134637 76 51 2.0 4.0 0.00 0.02 0.01 73 1013.5
20260906134138 74 102 2.0 3.0 0.00 0.02 0.01 74 1013.5
20260906133639 74 75 2.0 5.0 0.00 0.02 0.01 75 1013.4
20260906133137 74 54 1.0 5.0 0.00 0.02 0.01 76 1013.5
20260906132636 73 75 1.0 4.0 0.00 0.02 0.01 76 1013.5
20260906132138 73 39 2.0 4.0 0.00 0.02 0.01 77 1013.5
20260906131636 73 80 2.0 4.0 0.00 0.02 0.01 76 1013.3
20260906131139 72 48 2.0 3.0 0.00 0.02 0.01 80 1013.3
20260906130637 72 48 1.0 3.0 0.00 0.02 0.01 81 1013.3
20260906130135 71 48 2.0 4.0 0.00 0.02 0.01 81 1013.3
20260906125637 70 51 2.0 4.0 0.00 0.02 0.01 82 1013.4
20260906125135 70 51 2.0 3.0 0.00 0.02 0.01 84 1013.3
20260906124636 69 58 2.0 3.0 0.00 0.02 0.01 86 1013.3
20260906124135 68 72 2.0 3.0 0.00 0.02 0.01 88 1013.3
20260906123637 67 80 0.0 3.0 0.00 0.02 0.01 90 1013.2
20260906123135 67 72 0.0 0.0 0.00 0.02 0.01 92 1013.2
20260906122635 66 72 0.0 0.0 0.00 0.02 0.01 93 1013.1
20260906122413 65 72 0.0 0.0 0.00 0.02 0.01 93 1013.1
20260906121636 65 72 0.0 0.0 0.00 0.02 0.01 94 1013.1
20260906121136 64 72 0.0 0.0 0.00 0.02 0.01 95 1013.0
20260906120636 64 72 0.0 0.0 0.00 0.02 0.01 95 1013.0
20260906120134 62 72 0.0 0.0 0.00 0.02 0.01 95 1012.9
20260906115912 62 72 0.0 0.0 0.00 0.02 0.01 95 1012.8
20260906115134 60 72 0.0 0.0 0.00 0.02 0.01 94 1012.7
20260906114634 60 72 0.0 0.0 0.00 0.02 0.01 94 1012.8
20260906114133 60 72 0.0 0.0 0.00 0.02 0.01 94 1012.6
20260906113634 60 72 0.0 0.0 0.00 0.02 0.01 94 1012.6
20260906113137 60 72 0.0 0.0 0.00 0.02 0.01 94 1012.6
20260906112634 60 72 0.0 0.0 0.00 0.02 0.01 94 1012.6
20260906112133 60 72 0.0 0.0 0.00 0.02 0.01 94 1012.5
20260906111633 60 72 0.0 0.0 0.00 0.02 0.01 94 1012.5
20260906111133 60 72 0.0 0.0 0.00 0.02 0.01 94 1012.5
20260906110635 60 72 0.0 0.0 0.00 0.02 0.01 94 1012.6
20260906110133 60 72 0.0 0.0 0.00 0.02 0.01 94 1012.5
20260906105634 60 72 0.0 0.0 0.00 0.02 0.01 94 1012.4
20260906105133 60 72 0.0 0.0 0.00 0.02 0.01 94 1012.4
20260906104634 60 72 0.0 0.0 0.00 0.02 0.01 94 1012.4
20260906104134 60 72 0.0 0.0 0.00 0.02 0.01 94 1012.1
20260906103632 61 72 0.0 0.0 0.00 0.02 0.01 94 1011.9
20260906103409 61 72 0.0 0.0 0.00 0.02 0.01 94 1011.7
20260906102910 61 72 0.0 0.0 0.00 0.02 0.01 94 1011.6
20260906102131 61 72 0.0 0.0 0.00 0.02 0.01 94 1011.7
20260906101632 61 72 0.0 0.0 0.00 0.02 0.01 94 1011.6
20260906101133 61 72 0.0 0.0 0.00 0.02 0.01 94 1011.6
20260906100632 61 72 0.0 0.0 0.00 0.02 0.01 93 1011.5
20260906100135 61 72 0.0 0.0 0.00 0.02 0.01 93 1011.4
20260906095631 61 72 0.0 0.0 0.00 0.02 0.01 93 1011.4
20260906095408 61 72 0.0 0.0 0.00 0.03 0.01 93 1011.4
20260906094631 61 72 0.0 0.0 0.00 0.03 0.01 94 1011.3
20260906094131 61 72 0.0 0.0 0.00 0.03 0.01 94 1011.3
20260906093631 61 72 0.0 0.0 0.00 0.03 0.01 94 1011.3
20260906093131 62 72 0.0 0.0 0.00 0.03 0.01 93 1011.3
20260906092632 62 72 0.0 0.0 0.00 0.03 0.01 93 1011.2
20260906092131 62 72 0.0 0.0 0.00 0.03 0.01 93 1011.2
20260906091630 62 72 0.0 0.0 0.00 0.03 0.01 93 1011.1
20260906091130 62 72 0.0 0.0 0.00 0.03 0.01 93 1010.9
20260906090630 62 72 0.0 0.0 0.00 0.03 0.01 94 1011.0
20260906090130 62 72 0.0 0.0 0.00 0.03 0.01 94 1011.0
20260906085631 62 72 0.0 0.0 0.00 0.03 0.01 94 1010.8
20260906085130 62 72 0.0 0.0 0.00 0.03 0.01 93 1010.9
20260906084909 62 72 0.0 0.0 0.00 0.03 0.01 93 1010.8
20260906084406 62 72 0.0 0.0 0.00 0.03 0.01 93 1010.7
20260906083628 62 72 0.0 0.0 0.00 0.03 0.01 93 1010.7
20260906083127 62 72 0.0 0.0 0.00 0.03 0.01 93 1010.7
20260906082904 62 72 0.0 0.0 0.00 0.03 0.01 93 1010.7
20260906082124 63 72 0.0 0.0 0.00 0.03 0.01 93 1010.8
20260906081857 63 72 0.0 0.0 0.00 0.03 0.01 94 1010.7
20260906081121 63 72 0.0 0.0 0.00 0.03 0.01 94 1010.6
20260906080900 63 72 0.0 0.0 0.00 0.03 0.01 93 1010.6
20260906080120 63 72 0.0 0.0 0.00 0.03 0.01 93 1010.6
20260906075923 63 72 0.0 0.0 0.00 0.03 0.01 93 1010.6
20260906075918 63 72 0.0 0.0 0.00 0.03 0.01 93 1010.7
20260906074619 63 72 0.0 0.0 0.00 0.03 0.01 94 1010.6
20260906074118 63 72 0.0 0.0 0.00 0.03 0.01 94 1010.6
20260906073616 64 72 0.0 0.0 0.00 0.03 0.01 94 1010.6
20260906073115 64 72 0.0 0.0 0.00 0.03 0.01 94 1010.7
20260906072614 64 72 0.0 0.0 0.00 0.03 0.01 93 1010.6
20260906072116 64 72 0.0 0.0 0.00 0.03 0.01 93 1010.6
20260906071615 64 72 0.0 0.0 0.00 0.03 0.01 93 1010.5
20260906071113 64 72 0.0 0.0 0.00 0.03 0.01 94 1010.5
20260906070611 64 72 0.0 0.0 0.00 0.03 0.01 94 1010.4
20260906070353 64 72 0.0 0.0 0.00 0.03 0.01 94 1010.5
20260906065850 64 72 0.0 0.0 0.00 0.03 0.01 94 1010.6
20260906065106 64 72 0.0 0.0 0.00 0.03 0.01 93 1010.5
20260906064603 64 72 0.0 0.0 0.00 0.03 0.01 93 1010.6
20260906064105 65 72 0.0 0.0 0.00 0.03 0.01 94 1010.5
20260906063605 65 72 0.0 0.0 0.00 0.03 0.01 94 1010.6
20260906063104 65 72 0.0 0.0 0.00 0.03 0.01 94 1010.4
20260906062603 65 72 0.0 0.0 0.01 0.03 0.01 94 1010.4
20260906062103 65 72 0.0 0.0 0.01 0.03 0.01 94 1010.5
20260906061601 65 72 0.0 0.0 0.01 0.03 0.01 94 1010.6
20260906061102 65 72 0.0 0.0 0.01 0.03 0.01 94 1010.6
20260906060840 65 72 0.0 0.0 0.01 0.03 0.01 94 1010.6
20260906055844 65 72 0.0 0.0 0.01 0.02 0.01 94 1010.5
20260906055103 65 72 0.0 0.0 0.01 0.02 0.01 94 1010.4
20260906054603 66 72 0.0 0.0 0.01 0.02 0.01 94 1010.5
20260906054104 66 72 0.0 0.0 0.01 0.02 0.01 94 1010.5
20260906053603 66 72 0.0 0.0 0.01 0.02 0.01 94 1010.5
20260906053102 66 72 0.0 0.0 0.01 0.02 0.01 94 1010.5
20260906052602 66 72 0.0 0.0 0.00 0.02 0.00 94 1010.5
20260906052102 66 72 0.0 0.0 0.00 0.02 0.00 94 1010.6
20260906051603 66 72 0.0 0.0 0.00 0.02 0.00 94 1010.6
20260906051104 66 72 0.0 0.0 0.00 0.02 0.00 94 1010.7
20260906050551 66 72 0.0 0.0 0.00 0.02 0.00 94 1010.6
20260906050052 66 72 0.0 0.0 0.00 0.02 0.00 93 1010.6
20260906045552 67 72 0.0 0.0 0.00 0.02 0.00 94 1010.6
20260906045047 67 72 0.0 0.0 0.00 0.02 0.00 94 1010.8
20260906044548 67 72 0.0 0.0 0.00 0.02 0.00 93 1010.7
20260906044048 67 72 0.0 0.0 0.00 0.02 0.00 93 1010.7
20260906043530 67 72 0.0 0.0 0.00 0.02 0.00 93 1010.8
20260906043314 67 72 0.0 0.0 0.00 0.02 0.00 93 1011.0
20260906042530 68 72 0.0 0.0 0.00 0.02 0.00 93 1010.9
20260906042032 68 72 0.0 0.0 0.00 0.02 0.00 93 1011.1
20260906041526 68 72 0.0 0.0 0.00 0.02 0.00 93 1011.0
20260906041026 68 72 0.0 0.0 0.00 0.02 0.00 93 1011.0
20260906040526 68 72 0.0 0.0 0.00 0.02 0.00 92 1010.9
20260906040024 69 72 0.0 0.0 0.00 0.02 0.00 92 1010.9
20260906035524 69 72 0.0 0.0 0.00 0.02 0.02 92 1010.9
20260906035306 69 72 0.0 0.0 0.00 0.03 0.02 92 1010.8
20260906034524 69 72 0.0 0.0 0.00 0.03 0.02 91 1010.8
20260906034304 69 72 0.0 0.0 0.00 0.03 0.02 91 1010.9
20260906033830 70 72 0.0 0.0 0.00 0.03 0.02 91 1010.9
20260906033540 70 72 0.0 0.0 0.00 0.03 0.02 91 1010.9
20260906032523 70 72 0.0 0.0 0.00 0.03 0.02 91 1011.0
20260906032023 71 72 0.0 0.0 0.00 0.03 0.02 91 1011.0
20260906031523 71 72 0.0 0.0 0.00 0.03 0.02 91 1010.9
20260906031023 71 72 0.0 0.0 0.00 0.03 0.02 91 1011.0
20260906030523 71 72 0.0 0.0 0.00 0.03 0.02 91 1010.9
20260906030023 71 72 0.0 0.0 0.00 0.03 0.02 91 1011.0
20260906025523 71 72 0.0 0.0 0.00 0.03 0.02 91 1010.9
20260906025044 71 72 0.0 0.0 0.00 0.03 0.02 91 1010.8
20260906025036 71 72 0.0 0.0 0.00 0.03 0.02 91 1010.8
20260906024022 71 72 0.0 0.0 0.00 0.03 0.02 91 1010.8
20260906023522 71 72 0.0 0.0 0.00 0.03 0.02 91 1010.8
20260906023021 71 72 0.0 0.0 0.00 0.03 0.02 91 1010.8
20260906022521 71 72 0.0 0.0 0.00 0.03 0.02 92 1010.7
20260906022023 71 72 0.0 0.0 0.00 0.03 0.02 92 1010.6
20260906021523 71 72 0.0 0.0 0.00 0.03 0.02 92 1010.8
20260906021022 72 72 0.0 0.0 0.00 0.03 0.02 92 1010.7
20260906020521 72 72 0.0 0.0 0.00 0.03 0.02 92 1010.6
20260906020259 72 72 0.0 0.0 0.00 0.03 0.02 92 1010.7
20260906015521 72 72 0.0 0.0 0.00 0.03 0.02 92 1010.6
20260906015258 72 72 0.0 0.0 0.00 0.04 0.02 92 1010.6
20260906014522 72 72 0.0 0.0 0.00 0.04 0.02 91 1010.5
20260906014021 72 72 0.0 0.0 0.00 0.04 0.02 92 1010.5
20260906013520 72 72 0.0 0.0 0.00 0.04 0.02 91 1010.5
20260906013020 72 72 0.0 0.0 0.00 0.04 0.02 91 1010.3
20260906012824 72 72 0.0 0.0 0.00 0.04 0.02 92 1010.2
20260906012819 72 72 0.0 0.0 0.00 0.04 0.02 92 1010.3
20260906011520 72 72 0.0 0.0 0.00 0.04 0.02 92 1010.2
20260906011019 72 72 0.0 0.0 0.00 0.04 0.02 92 1010.2
20260906010520 73 72 0.0 0.0 0.00 0.04 0.02 92 1010.1
20260906010020 73 72 0.0 0.0 0.00 0.04 0.02 92 1010.0
20260906005520 73 72 0.0 0.0 0.00 0.04 0.02 92 1009.8
20260906005020 73 72 0.0 0.0 0.00 0.04 0.02 92 1009.8
20260906004519 73 72 0.0 0.0 0.00 0.04 0.02 92 1009.8
20260906004259 73 72 0.0 0.0 0.00 0.04 0.02 92 1009.6
20260906003519 73 72 0.0 0.0 0.00 0.04 0.02 92 1009.6
20260906003019 74 72 0.0 0.0 0.00 0.04 0.02 92 1009.6
20260906002758 74 72 0.0 0.0 0.00 0.04 0.02 92 1009.6
20260906002019 74 72 0.0 0.0 0.00 0.04 0.02 91 1009.5
20260906001518 74 72 0.0 0.0 0.00 0.04 0.02 91 1009.5
20260906001014 74 72 0.0 0.0 0.00 0.04 0.02 91 1009.5
20260906000515 74 72 0.0 0.0 0.00 0.04 0.02 91 1009.6
20260906000256 74 72 0.0 0.0 0.00 0.04 0.02 90 1009.4
20260905235513 74 72 0.0 0.0 0.00 0.04 0.02 90 1009.3
20260905235013 75 72 0.0 0.0 0.00 0.04 0.02 89 1009.4
20260905234515 75 72 0.0 0.0 0.00 0.04 0.02 89 1009.5
20260905234037 75 72 0.0 0.0 0.00 0.04 0.02 88 1009.4
20260905234028 75 72 0.0 0.0 0.00 0.04 0.02 89 1009.5